Погода в Явлейке

Россия / Пензенская область     53°16′16″N   46°48′37″E
темп.,
°C
ветер,
м/с
пор.,
м/с
влажн.,
%
обл.,
%
осадки,
мм/ч
давл.,
гПа
погр.,
м
7 марта, вс
вс700:00−13з129361 0.0 101321
03:00−12зюз119778 0.1 101320
06:00−11зсз2297100 0.7 101351
09:00−10з359483 0.7 1014253
12:00−7зюз588623 0.0 1013854
15:00−7юз6108462 0.1 1010962
18:00−7ююз71492100 0.1 1007991
21:00−6юз81793100 1.6 10031303
8 марта, пн
пн800:00−5юз81693100 1.8 10001136
03:00−4зюз81693100 2.9 9981210
06:00−4з61295100 0.6 999827
09:00−5з6118691 0.9 1002995
12:00−3зюз6107815 0.0 10021237
15:00−2юз6108058 0.1 10011296
18:00−5юз5138866 0.1 1001775
21:00−9з4138966 0.4 1005552
9 марта, вт
вт900:00−12з38940 0.0 1007191
03:00−15з239828 0.0 100930
06:00−16зюз229837 0.0 101020
09:00−11зсз129245 0.0 1011167
12:00−6ссз118481 0.0 1011605
15:00−6ссз238790 0.3 1010561
18:00−10ссз3794100 0.1 1011184
21:00−11ссз3895100 0.3 1013412
10 марта, ср
ср1000:00−16ссз389797 0.1 1013211
03:00−17сз3109798 0.1 1015268
06:00−19сз41097100 0.0 1017317
09:00−18ссз51093100 0.1 1019468
12:00−16сз5889100 0.0 1020635
15:00−17сз5989100 0.1 1021716
18:00−21сз41194100 0.0 1023491
21:00−25ссз3109797 0.1 1025278
11 марта, чт
чт1100:00−26сз389962 0.0 1026150
03:00−27сз369972 0.0 1028121
06:00−27сз369826 0.0 1029120
09:00−21сз369414 0.0 1030253
12:00−16сз47860 0.0 1029469
15:00−14сз478710 0.0 1029530
18:00−17зсз399467 0.0 1030236
21:00−20зсз389741 0.0 1032151